Theta_e
356 356 358 354 352 353 352 354 356 354 353 353 353 354 353 353 355 354 354 355 355 352 350 348 349 349 349 348 349 342 342 342 342 341 340 343 345 345 346 346 347 351 353 354
358 364 356 351 352 354 353 358 358 355 351 352 353 354 351 352 353 353 354 355 354 353 351 349 348 349 350 350 349 350 342 344 345 342 341 343 344 344 345 345 347 352 354 354
362 352 351 352 352 354 355 351 351 352 350 352 360 358 350 349 347 350 351 352 353 354 352 351 349 349 350 350 351 351 350 345 346 342 342 344 345 344 344 345 350 352 355 357
353 351 353 351 351 349 357 346 348 349 352 363 353 365 356 353 350 350 351 351 352 354 354 352 350 350 351 351 352 352 352 349 348 345 342 345 345 344 342 343 347 357 359 360
355 352 353 352 350 348 349 345 346 344 346 357 352 344 358 351 341 345 348 349 351 352 353 353 352 349 350 350 351 353 354 354 350 349 343 346 346 345 344 352 356 357 354 354
352 347 347 349 345 345 344 346 349 348 343 349 340 333 345 342 340 340 344 347 350 353 353 353 352 351 351 350 350 351 355 357 354 354 350 350 349 348 352 354 356 352 351 351
349 346 344 343 345 350 345 345 349 350 345 341 340 337 338 340 344 346 348 350 353 354 354 354 354 354 352 351 349 349 356 358 356 357 354 350 351 350 352 354 351 350 350 349
349 352 345 347 342 344 340 342 344 349 344 340 338 342 337 336 342 340 339 347 350 352 353 353 354 354 353 353 352 349 348 351 351 346 352 353 351 349 350 349 345 341 341 344
345 344 345 342 342 344 346 345 344 339 339 338 336 334 334 336 335 334 334 336 342 350 351 354 355 355 356 355 354 352 347 349 353 353 352 348 346 349 346 339 338 328 331 335
343 343 339 345 340 337 340 340 340 341 342 338 334 335 334 333 332 334 334 334 339 347 352 353 354 354 354 354 353 352 352 354 354 351 350 348 347 342 339 338 336 333 332 335
333 338 340 339 340 341 341 345 340 338 334 335 336 335 333 334 334 335 335 334 341 343 351 352 353 353 354 354 354 355 353 354 352 350 349 346 342 336 334 335 337 337 336 338
334 337 337 336 335 334 331 331 332 333 334 333 333 333 333 334 333 333 334 338 343 349 353 353 352 352 353 352 352 354 355 354 352 349 348 343 341 336 336 340 339 339 338 338
333 333 334 334 333 332 331 332 332 333 332 332 334 334 334 334 333 334 336 341 344 355 354 352 352 352 352 349 348 349 352 354 353 350 347 344 343 339 340 340 341 340 338 337
327 329 330 332 333 332 332 332 332 331 334 335 334 335 335 334 333 337 339 341 346 356 353 351 352 351 350 345 344 343 345 350 351 350 347 345 341 341 341 341 339 337 335 334
331 332 333 333 333 334 332 332 332 332 332 333 333 333 332 334 339 339 340 345 349 355 352 351 351 349 346 344 341 338 339 342 344 345 342 341 339 339 339 338 335 333 332 332
335 337 337 338 336 335 335 333 333 334 333 332 332 332 333 335 336 341 343 346 348 353 353 350 350 349 346 344 341 339 335 336 337 336 336 335 335 334 333 332 332 332 333 332
339 338 340 340 337 335 336 333 333 332 331 332 332 333 333 338 344 344 342 346 347 348 353 352 348 348 346 345 341 340 338 335 335 334 334 334 333 332 332 332 332 332 333 333
336 337 337 339 338 339 335 335 334 334 334 333 332 334 338 339 342 341 341 348 347 347 350 349 348 345 345 345 344 340 339 338 338 337 337 336 335 333 332 332 334 335 334 333
334 335 336 337 339 336 333 336 338 338 337 332 333 338 338 338 338 343 346 343 342 342 346 349 347 345 345 344 343 342 340 339 338 336 333 332 333 333 334 334 332 334 332 330
335 335 335 336 337 340 338 336 336 335 335 339 339 340 340 340 341 341 344 340 340 341 343 348 347 345 346 344 341 340 339 338 336 336 335 336 335 333 333 334 333 332 329 328
341 339 339 338 338 338 336 337 336 339 341 341 338 338 337 339 339 340 343 343 340 341 344 346 346 346 344 342 342 340 338 336 336 335 335 335 334 335 335 334 331 329 329 329
339 342 341 341 342 341 337 337 339 340 338 336 336 335 337 336 335 336 341 342 340 343 345 346 346 345 344 343 342 340 339 338 338 338 337 336 335 332 330 329 329 330 330 330
340 339 340 340 340 341 338 338 336 335 336 336 335 335 335 334 335 338 339 340 340 342 346 346 345 344 343 342 341 341 339 337 335 334 333 332 331 330 331 331 331 330 330 328
338 338 340 340 338 336 334 335 336 336 335 333 336 335 335 335 335 337 339 341 342 342 346 345 345 345 343 342 341 340 339 336 334 333 331 330 330 329 328 328 327 328 327 327
335 337 340 342 340 337 334 335 334 332 335 335 335 335 335 334 337 339 342 341 343 341 345 345 345 344 345 343 341 338 337 335 332 332 330 330 329 328 328 327 327 327 326 326
332 332 333 334 333 332 332 332 330 333 335 335 335 336 335 335 337 338 339 339 342 341 343 344 344 344 343 343 340 337 335 334 332 331 330 329 329 330 328 329 328 325 325 325
Wind_Speed
18 5 8 7 9 7 8 1 12 7 1 5 8 10 10 10 9 11 13 15 15 15 17 21 22 20 19 19 18 18 17 16 18 18 19 19 17 16 15 14 13 8 10 11
10 7 13 4 6 8 3 19 17 8 1 5 7 10 7 6 10 10 14 16 16 16 16 20 24 23 23 22 21 20 20 20 20 18 19 18 17 16 15 14 14 13 11 11
10 9 6 3 3 5 16 7 9 11 9 7 6 16 10 7 2 4 8 10 14 18 18 18 22 25 25 24 24 24 24 25 24 21 19 17 14 14 14 14 13 13 13 10
2 6 2 3 2 9 9 7 9 11 11 4 7 6 12 22 9 3 5 7 11 16 18 16 19 26 26 26 26 26 27 27 27 26 21 20 18 15 16 13 9 9 7 6
14 6 6 8 8 5 9 7 9 9 14 14 14 7 7 18 11 7 4 1 7 12 16 19 21 23 28 27 26 27 27 27 26 28 25 22 20 15 15 8 8 8 5 5
7 4 5 8 0 3 7 13 14 12 13 6 10 8 12 13 12 13 15 12 6 10 12 14 19 25 27 20 20 24 26 25 26 24 28 20 20 20 4 5 7 6 6 6
10 13 7 5 9 3 11 16 7 7 7 8 10 7 10 12 11 11 9 11 12 9 8 10 13 13 22 23 23 9 22 22 23 21 23 25 15 11 9 8 6 5 7 7
5 4 8 9 9 11 12 10 7 8 9 11 5 1 3 7 7 5 7 5 3 6 5 8 9 15 15 23 17 13 15 14 16 15 21 21 18 7 10 11 10 2 2 1
6 3 4 4 5 6 4 8 14 10 14 11 4 6 8 9 7 10 13 11 9 4 5 6 4 4 3 6 12 15 18 21 21 13 22 21 16 17 13 10 4 8 5 6
11 8 5 12 4 13 11 12 12 6 7 8 8 11 2 8 12 12 12 16 7 3 3 2 3 4 5 7 12 17 21 22 23 25 22 20 21 26 11 11 13 14 19 10
14 11 5 4 13 7 4 12 8 11 6 10 11 7 10 10 10 12 14 13 11 7 1 3 3 2 4 5 6 9 17 19 22 26 32 38 36 20 26 35 34 23 17 13
8 10 12 16 3 6 10 14 14 10 11 11 11 14 4 1 7 9 14 10 8 7 2 1 3 6 7 6 8 11 15 21 25 33 35 41 35 26 30 21 16 18 15 15
9 7 11 14 14 10 7 11 11 11 15 16 12 11 9 13 13 13 9 13 11 1 1 4 5 5 1 2 4 6 4 14 24 27 29 29 20 21 19 18 21 17 17 14
4 15 17 14 18 16 12 13 14 15 11 15 15 18 16 18 16 13 14 11 10 3 2 5 4 4 4 0 2 0 7 8 18 23 25 23 22 20 21 20 17 20 18 17
10 16 16 17 18 16 19 17 17 17 17 18 20 21 20 15 9 10 9 10 6 3 4 5 6 5 4 3 1 3 5 13 16 17 21 22 25 25 21 19 16 17 17 15
13 16 13 19 20 18 21 21 20 20 19 20 21 20 14 11 13 12 13 10 9 5 5 7 6 7 7 6 5 6 8 9 15 19 20 19 17 16 15 16 17 15 15 16
15 14 14 19 20 19 17 16 16 13 11 11 15 17 16 12 12 12 11 9 6 6 7 10 8 7 8 8 9 8 8 9 10 12 15 16 18 20 19 17 17 16 16 17
14 14 12 14 16 19 19 6 5 9 12 12 14 11 11 10 6 12 11 6 4 4 6 6 8 10 10 8 9 12 9 9 9 12 10 11 14 21 22 19 17 16 16 14
16 11 12 14 14 16 17 4 7 8 11 15 15 8 8 10 11 3 7 3 4 8 6 11 12 13 12 9 9 9 13 10 10 12 12 15 17 17 16 16 17 17 16 15
10 11 10 13 16 18 8 5 4 6 14 8 6 7 11 12 11 5 2 6 8 7 7 11 15 15 15 12 12 11 11 11 12 12 15 16 16 17 15 16 18 14 13 13
9 10 13 12 14 16 13 9 3 7 4 6 8 8 12 10 11 11 12 11 10 8 7 9 13 16 15 15 14 12 12 12 13 13 15 15 13 15 15 15 13 13 13 13
14 12 13 13 16 20 7 1 7 7 9 12 14 12 12 12 14 13 7 11 8 6 6 9 11 13 14 17 16 17 16 15 15 16 14 14 13 13 13 13 12 12 11 10
15 15 12 15 8 3 1 7 10 9 10 14 13 12 10 12 13 12 6 9 8 7 7 8 12 14 16 17 18 15 15 14 14 14 13 13 12 12 13 13 13 13 12 13
14 12 13 12 13 15 14 8 9 11 15 14 12 11 11 13 14 13 9 8 7 8 9 12 12 14 16 17 16 17 17 15 15 14 12 12 12 12 12 13 14 14 16 17
13 6 8 12 14 16 15 15 10 12 11 11 11 12 11 11 12 12 6 5 5 4 9 10 14 14 17 17 18 17 18 18 16 15 14 13 14 15 15 15 16 18 17 15
12 13 11 12 11 12 13 11 12 12 13 12 14 12 10 12 9 7 6 6 7 12 13 12 11 12 16 19 18 19 20 20 19 17 17 17 17 20 15 17 13 16 19 11
Wind_Direction
248 21 253 269 6 348 14 321 21 290 143 289 262 259 261 204 191 206 199 190 198 205 197 194 194 193 188 182 182 186 193 194 189 195 197 196 204 204 210 209 208 215 224 205
349 177 252 27 14 305 258 36 278 59 70 304 293 321 275 219 205 217 209 194 196 201 209 195 192 197 199 189 188 187 191 191 197 202 203 206 206 207 213 212 201 213 220 227
201 59 64 327 232 70 325 10 4 331 312 261 284 354 153 133 294 202 248 239 202 199 201 195 193 200 200 201 192 195 194 190 193 200 203 211 226 236 220 223 203 208 220 222
312 79 328 282 243 307 165 5 321 329 305 175 236 169 25 321 137 162 244 253 251 212 205 197 196 197 207 205 200 200 197 196 197 199 197 204 207 220 229 231 209 136 168 170
268 161 230 259 34 331 28 325 299 291 280 94 266 311 180 218 36 54 73 240 259 252 224 209 188 200 207 210 207 203 197 203 202 198 205 198 214 214 233 165 130 136 123 120
223 156 250 18 341 288 313 273 253 239 247 120 56 339 92 56 36 27 16 360 2 305 243 236 214 182 208 194 207 206 193 196 205 205 206 207 199 223 219 172 176 190 200 178
210 188 130 279 269 220 236 286 269 245 220 66 48 313 19 54 52 42 20 9 0 341 275 239 242 228 179 199 206 219 178 182 203 222 204 209 208 214 232 198 227 228 208 208
207 273 214 148 295 344 306 344 305 313 323 346 264 278 38 82 115 106 27 56 15 345 284 268 232 221 218 157 184 195 166 165 194 212 230 187 181 179 216 165 98 349 305 294
312 85 95 266 266 257 305 260 1 306 267 288 320 23 300 103 180 19 8 348 5 48 339 313 273 17 248 236 206 183 187 196 198 179 203 198 181 156 183 134 197 294 259 260
308 309 293 115 274 246 260 325 296 259 286 293 326 312 314 3 347 5 333 328 13 33 325 265 251 232 228 242 207 211 198 187 175 171 175 156 151 142 156 272 245 253 263 250
294 291 266 197 238 266 216 238 202 256 306 288 283 303 13 29 350 324 320 332 12 350 319 254 229 240 258 269 273 228 201 188 183 176 164 165 161 183 197 214 215 233 248 223
306 309 303 300 287 240 282 285 293 291 293 289 309 301 44 210 313 327 323 16 7 358 69 202 246 249 221 240 234 223 206 198 201 175 167 170 183 195 209 209 212 229 210 203
311 263 279 271 242 181 245 272 268 282 294 279 278 283 345 350 335 329 349 357 335 17 195 234 231 238 350 211 269 233 202 205 178 177 179 187 198 199 200 198 191 190 187 185
309 270 273 281 307 318 295 286 281 275 267 285 289 303 315 323 324 345 350 345 337 136 272 243 229 270 273 198 237 118 148 198 192 194 186 187 190 197 192 189 180 179 184 188
247 267 283 289 294 290 289 281 281 279 283 285 298 302 308 323 354 316 335 357 328 233 245 236 228 229 248 252 205 187 190 164 175 168 168 173 176 183 187 191 199 198 193 179
256 263 267 274 276 274 274 273 273 272 273 276 285 288 298 357 350 351 341 344 306 221 213 223 203 216 218 203 198 188 185 165 162 145 145 154 159 168 181 175 167 170 175 173
281 288 288 279 291 293 278 266 269 285 287 305 305 321 333 354 359 336 312 313 314 316 181 216 214 219 218 194 185 174 167 143 153 151 157 164 160 162 162 165 167 175 178 178
258 256 269 273 280 270 274 18 302 284 295 295 316 333 357 338 340 311 293 323 315 287 193 220 210 213 222 197 198 170 163 159 166 142 155 147 160 158 162 171 175 178 180 180
251 264 268 263 256 274 281 297 344 354 313 311 297 350 317 343 328 295 70 52 321 311 277 185 201 212 207 193 187 164 167 159 157 150 163 164 170 159 167 166 181 186 177 177
263 246 256 259 268 274 297 87 76 336 292 51 5 344 333 335 299 26 9 293 305 303 263 162 179 198 195 188 182 193 184 177 171 180 177 173 164 168 170 184 183 178 175 179
222 236 251 249 257 269 283 97 101 268 345 345 327 321 324 317 319 314 313 288 292 292 229 194 182 195 191 188 183 183 181 185 181 179 183 164 170 182 177 172 176 176 185 180
268 249 247 244 261 268 38 116 247 349 329 316 318 317 309 319 309 298 285 278 287 270 217 176 187 194 183 179 184 188 197 184 176 177 173 169 172 176 171 177 181 186 192 200
247 251 279 291 307 115 126 279 284 291 305 299 297 295 314 304 303 300 287 301 282 268 184 205 183 185 186 186 191 188 195 179 178 181 177 176 177 185 175 186 191 199 202 232
257 249 260 270 282 291 297 296 308 296 293 292 285 305 299 301 304 294 278 290 280 245 193 193 198 189 193 197 192 194 189 184 185 184 181 184 188 194 199 200 204 218 223 215
284 312 291 280 273 272 274 282 308 304 306 289 280 271 292 306 302 296 256 262 273 246 251 206 208 189 203 189 200 192 182 187 188 187 187 190 199 197 202 224 221 221 228 241
273 280 274 279 286 302 303 302 304 297 296 286 290 287 293 300 291 275 243 224 245 231 226 218 211 187 200 198 197 196 184 190 192 192 197 204 215 188 211 219 218 250 258 252